| time (UTC) | temp F | wind direction | speed knots | gust knots | rain 1hr in | rain 24hr in | rain mn in | humidity % | barometer mb |
| 20260507200521 | 75 | 235 | 8.7 | 14.8 | 0.00 | 0.00 | 0.00 | 21 | 1014.1 |
| 20260507200037 | 75 | 269 | 7.8 | 13.9 | 0.00 | 0.00 | 0.00 | 21 | 1014.1 |
| 20260507195521 | 75 | 214 | 7.8 | 13.0 | 0.00 | 0.00 | 0.00 | 21 | 1014.0 |
| 20260507195023 | 74 | 250 | 7.0 | 12.2 | 0.00 | 0.00 | 0.00 | 22 | 1014.2 |
| 20260507194548 | 74 | 239 | 5.2 | 14.8 | 0.00 | 0.00 | 0.00 | 22 | 1014.3 |
| 20260507194021 | 74 | 276 | 7.8 | 14.8 | 0.00 | 0.00 | 0.00 | 24 | 1014.3 |
| 20260507193522 | 74 | 256 | 5.2 | 13.0 | 0.00 | 0.00 | 0.00 | 22 | 1014.3 |
| 20260507193042 | 74 | 266 | 7.0 | 13.9 | 0.00 | 0.00 | 0.00 | 18 | 1014.4 |
| 20260507192521 | 74 | 284 | 8.7 | 13.9 | 0.00 | 0.00 | 0.00 | 20 | 1014.5 |
| 20260507192025 | 74 | 300 | 7.0 | 12.2 | 0.00 | 0.00 | 0.00 | 22 | 1014.5 |
| 20260507191545 | 73 | 236 | 7.8 | 12.2 | 0.00 | 0.00 | 0.00 | 24 | 1014.4 |
| 20260507191021 | 73 | 234 | 7.0 | 11.3 | 0.00 | 0.00 | 0.00 | 25 | 1014.5 |
| 20260507190521 | 73 | 313 | 4.3 | 13.0 | 0.00 | 0.00 | 0.00 | 24 | 1014.4 |
| 20260507190046 | 72 | 290 | 7.8 | 13.0 | 0.00 | 0.00 | 0.00 | 24 | 1014.5 |
| 20260507185521 | 72 | 263 | 8.7 | 13.0 | 0.00 | 0.01 | 0.00 | 25 | 1014.6 |
| 20260507185021 | 72 | 280 | 7.8 | 15.6 | 0.00 | 0.01 | 0.00 | 28 | 1014.8 |
| 20260507184535 | 72 | 226 | 9.6 | 15.6 | 0.00 | 0.01 | 0.00 | 30 | 1015.0 |
| 20260507184021 | 72 | 262 | 7.8 | 14.8 | 0.00 | 0.01 | 0.00 | 29 | 1014.8 |
| 20260507183521 | 72 | 301 | 9.6 | 14.8 | 0.00 | 0.01 | 0.00 | 28 | 1015.0 |
| 20260507183041 | 72 | 278 | 6.1 | 14.8 | 0.00 | 0.01 | 0.00 | 29 | 1015.2 |
| 20260507182522 | 71 | 279 | 7.0 | 14.8 | 0.00 | 0.01 | 0.00 | 32 | 1015.2 |
| 20260507182020 | 71 | 267 | 10.4 | 15.6 | 0.00 | 0.01 | 0.00 | 29 | 1015.3 |
| 20260507181543 | 70 | 305 | 9.6 | 15.6 | 0.00 | 0.01 | 0.00 | 28 | 1015.6 |
| 20260507181022 | 70 | 278 | 7.0 | 14.8 | 0.00 | 0.01 | 0.00 | 33 | 1015.7 |
| 20260507180520 | 69 | 263 | 8.7 | 16.5 | 0.00 | 0.01 | 0.00 | 34 | 1015.4 |
| 20260507180042 | 69 | 273 | 9.6 | 16.5 | 0.00 | 0.01 | 0.00 | 35 | 1015.5 |
| 20260507175522 | 69 | 277 | 11.3 | 16.5 | 0.00 | 0.05 | 0.00 | 36 | 1015.7 |
| 20260507175023 | 69 | 281 | 8.7 | 16.5 | 0.00 | 0.05 | 0.00 | 36 | 1015.8 |
| 20260507174543 | 68 | 278 | 9.6 | 16.5 | 0.00 | 0.05 | 0.00 | 38 | 1015.6 |
| 20260507174024 | 68 | 287 | 10.4 | 15.6 | 0.00 | 0.05 | 0.00 | 37 | 1015.8 |
| 20260507173525 | 67 | 258 | 9.6 | 16.5 | 0.00 | 0.05 | 0.00 | 39 | 1015.9 |
| 20260507173119 | 67 | 269 | 11.3 | 16.5 | 0.00 | 0.05 | 0.00 | 39 | 1015.7 |
| 20260507172523 | 67 | 281 | 11.3 | 16.5 | 0.00 | 0.05 | 0.00 | 40 | 1016.0 |
| 20260507172020 | 67 | 279 | 11.3 | 16.5 | 0.00 | 0.05 | 0.00 | 38 | 1016.0 |
| 20260507171545 | 66 | 286 | 9.6 | 20.0 | 0.00 | 0.05 | 0.00 | 40 | 1016.1 |
| 20260507171022 | 66 | 277 | 11.3 | 20.0 | 0.00 | 0.05 | 0.00 | 40 | 1016.2 |
| 20260507170521 | 66 | 278 | 12.2 | 17.4 | 0.00 | 0.05 | 0.00 | 39 | 1016.2 |
| 20260507170042 | 66 | 275 | 9.6 | 17.4 | 0.00 | 0.05 | 0.00 | 41 | 1016.2 |
| 20260507165522 | 65 | 265 | 12.2 | 17.4 | 0.00 | 0.07 | 0.00 | 41 | 1016.4 |
| 20260507165022 | 64 | 260 | 12.2 | 18.2 | 0.00 | 0.07 | 0.00 | 40 | 1016.4 |
| 20260507164541 | 64 | 254 | 12.2 | 18.2 | 0.00 | 0.07 | 0.00 | 42 | 1016.3 |
| 20260507164023 | 63 | 260 | 12.2 | 17.4 | 0.00 | 0.07 | 0.00 | 43 | 1016.5 |
| 20260507163524 | 63 | 262 | 11.3 | 17.4 | 0.00 | 0.07 | 0.00 | 46 | 1016.6 |
| 20260507163040 | 62 | 236 | 11.3 | 16.5 | 0.00 | 0.07 | 0.00 | 46 | 1016.6 |
| 20260507162528 | 62 | 247 | 10.4 | 18.2 | 0.00 | 0.07 | 0.00 | 48 | 1016.5 |
| 20260507162020 | 61 | 252 | 13.0 | 18.2 | 0.00 | 0.07 | 0.00 | 49 | 1016.5 |
| 20260507161543 | 61 | 253 | 11.3 | 17.4 | 0.00 | 0.07 | 0.00 | 49 | 1016.8 |
| 20260507161023 | 61 | 263 | 11.3 | 18.2 | 0.00 | 0.07 | 0.00 | 51 | 1016.8 |
| 20260507160522 | 60 | 259 | 11.3 | 18.2 | 0.00 | 0.07 | 0.00 | 52 | 1016.9 |
| 20260507160050 | 60 | 257 | 13.0 | 18.2 | 0.00 | 0.07 | 0.00 | 51 | 1017.0 |
| 20260507155525 | 60 | 265 | 12.2 | 16.5 | 0.00 | 0.08 | 0.00 | 52 | 1017.1 |
| 20260507155024 | 60 | 232 | 12.2 | 17.4 | 0.00 | 0.08 | 0.00 | 54 | 1017.0 |
| 20260507154542 | 59 | 228 | 11.3 | 17.4 | 0.00 | 0.08 | 0.00 | 56 | 1017.0 |
| 20260507154021 | 58 | 266 | 12.2 | 16.5 | 0.00 | 0.08 | 0.00 | 55 | 1017.0 |
| 20260507153525 | 58 | 244 | 13.0 | 16.5 | 0.00 | 0.08 | 0.00 | 56 | 1016.9 |
| 20260507153041 | 57 | 254 | 12.2 | 17.4 | 0.00 | 0.08 | 0.00 | 57 | 1017.0 |
| 20260507152525 | 57 | 256 | 11.3 | 17.4 | 0.00 | 0.08 | 0.00 | 61 | 1017.0 |
| 20260507152031 | 56 | 255 | 9.6 | 14.8 | 0.00 | 0.08 | 0.00 | 64 | 1016.7 |
| 20260507151542 | 55 | 254 | 10.4 | 15.6 | 0.00 | 0.08 | 0.00 | 65 | 1016.8 |
| 20260507151023 | 54 | 257 | 11.3 | 15.6 | 0.00 | 0.08 | 0.00 | 65 | 1016.9 |
| 20260507150523 | 54 | 250 | 11.3 | 15.6 | 0.00 | 0.08 | 0.00 | 66 | 1016.8 |
| 20260507150043 | 53 | 257 | 12.2 | 16.5 | 0.00 | 0.08 | 0.00 | 68 | 1017.0 |
| 20260507145520 | 52 | 251 | 11.3 | 16.5 | 0.00 | 0.08 | 0.00 | 70 | 1017.0 |
| 20260507145025 | 51 | 254 | 10.4 | 15.6 | 0.00 | 0.08 | 0.00 | 73 | 1017.0 |
| 20260507144541 | 51 | 256 | 9.6 | 17.4 | 0.00 | 0.08 | 0.00 | 74 | 1017.0 |
| 20260507144021 | 50 | 272 | 10.4 | 17.4 | 0.00 | 0.08 | 0.00 | 75 | 1017.3 |
| 20260507143522 | 49 | 250 | 10.4 | 17.4 | 0.00 | 0.08 | 0.00 | 75 | 1017.1 |
| 20260507143054 | 49 | 246 | 8.7 | 14.8 | 0.00 | 0.08 | 0.00 | 77 | 1017.1 |
| 20260507142522 | 48 | 242 | 9.6 | 13.0 | 0.00 | 0.08 | 0.00 | 78 | 1017.2 |
| 20260507142027 | 47 | 244 | 9.6 | 13.9 | 0.00 | 0.08 | 0.00 | 79 | 1017.4 |
| 20260507141550 | 46 | 235 | 9.6 | 13.9 | 0.00 | 0.08 | 0.00 | 80 | 1017.5 |
| 20260507141020 | 46 | 219 | 9.6 | 13.0 | 0.00 | 0.08 | 0.00 | 81 | 1017.6 |
| 20260507140525 | 45 | 210 | 8.7 | 13.0 | 0.00 | 0.08 | 0.00 | 82 | 1017.6 |
| 20260507140039 | 45 | 223 | 7.0 | 13.0 | 0.00 | 0.08 | 0.00 | 84 | 1017.6 |
| 20260507135522 | 44 | 232 | 9.6 | 13.0 | 0.00 | 0.08 | 0.00 | 84 | 1017.5 |
| 20260507135022 | 43 | 250 | 8.7 | 13.0 | 0.00 | 0.08 | 0.00 | 85 | 1017.7 |
| 20260507134546 | 43 | 241 | 7.8 | 13.9 | 0.00 | 0.08 | 0.00 | 85 | 1017.6 |
| 20260507134021 | 42 | 240 | 9.6 | 13.9 | 0.00 | 0.08 | 0.00 | 86 | 1017.6 |
| 20260507133521 | 42 | 261 | 9.6 | 13.9 | 0.00 | 0.08 | 0.00 | 86 | 1017.8 |
| 20260507133118 | 41 | 254 | 9.6 | 13.9 | 0.00 | 0.08 | 0.00 | 87 | 1017.8 |
| 20260507132529 | 41 | 241 | 7.8 | 12.2 | 0.00 | 0.08 | 0.00 | 87 | 1018.0 |
| 20260507132020 | 40 | 268 | 7.0 | 12.2 | 0.00 | 0.08 | 0.00 | 88 | 1017.9 |
| 20260507131545 | 40 | 256 | 8.7 | 13.9 | 0.00 | 0.08 | 0.00 | 88 | 1017.8 |
| 20260507131022 | 39 | 246 | 8.7 | 13.9 | 0.00 | 0.08 | 0.00 | 88 | 1017.7 |
| 20260507130521 | 39 | 257 | 8.7 | 13.0 | 0.00 | 0.08 | 0.00 | 88 | 1017.7 |
| 20260507130053 | 38 | 234 | 7.8 | 13.9 | 0.00 | 0.08 | 0.00 | 88 | 1017.7 |
| 20260507125522 | 38 | 252 | 8.7 | 13.9 | 0.00 | 0.09 | 0.00 | 88 | 1018.0 |
| 20260507125021 | 38 | 252 | 7.8 | 13.0 | 0.00 | 0.09 | 0.00 | 89 | 1017.9 |
| 20260507124547 | 37 | 247 | 6.1 | 9.6 | 0.00 | 0.09 | 0.00 | 89 | 1018.0 |
| 20260507124025 | 37 | 256 | 5.2 | 7.8 | 0.00 | 0.09 | 0.00 | 89 | 1018.0 |
| 20260507123526 | 36 | 234 | 3.5 | 8.7 | 0.00 | 0.09 | 0.00 | 89 | 1017.9 |
| 20260507123044 | 36 | 230 | 4.3 | 8.7 | 0.00 | 0.09 | 0.00 | 89 | 1018.0 |
| 20260507122521 | 36 | 230 | 4.3 | 8.7 | 0.00 | 0.09 | 0.00 | 89 | 1018.0 |
| 20260507122022 | 35 | 230 | 4.3 | 7.8 | 0.00 | 0.09 | 0.00 | 89 | 1018.0 |
| 20260507121544 | 35 | 238 | 3.5 | 7.0 | 0.00 | 0.09 | 0.00 | 89 | 1018.0 |
| 20260507121022 | 35 | 240 | 2.6 | 6.1 | 0.00 | 0.09 | 0.00 | 89 | 1018.1 |
| 20260507120521 | 35 | 238 | 2.6 | 7.0 | 0.00 | 0.09 | 0.00 | 88 | 1018.2 |
| 20260507120041 | 35 | 239 | 3.5 | 7.0 | 0.00 | 0.09 | 0.00 | 88 | 1018.3 |
| 20260507115521 | 35 | 240 | 3.5 | 8.7 | 0.00 | 0.09 | 0.00 | 88 | 1018.1 |
| 20260507115022 | 35 | 238 | 4.3 | 8.7 | 0.00 | 0.09 | 0.00 | 89 | 1018.2 |
| 20260507114555 | 34 | 244 | 4.3 | 7.8 | 0.00 | 0.09 | 0.00 | 88 | 1018.0 |
| 20260507114021 | 34 | 246 | 5.2 | 8.7 | 0.00 | 0.09 | 0.00 | 89 | 1018.2 |
| 20260507113523 | 34 | 257 | 5.2 | 8.7 | 0.00 | 0.09 | 0.00 | 88 | 1018.3 |
| 20260507113041 | 34 | 256 | 5.2 | 8.7 | 0.00 | 0.09 | 0.00 | 89 | 1018.4 |
| 20260507112522 | 34 | 253 | 3.5 | 7.0 | 0.00 | 0.09 | 0.00 | 88 | 1018.4 |
| 20260507112025 | 34 | 247 | 3.5 | 7.0 | 0.00 | 0.09 | 0.00 | 88 | 1018.3 |
| 20260507111539 | 34 | 248 | 4.3 | 7.0 | 0.00 | 0.09 | 0.00 | 89 | 1018.3 |
| 20260507111021 | 34 | 271 | 3.5 | 7.0 | 0.00 | 0.09 | 0.00 | 89 | 1018.4 |
| 20260507110521 | 33 | 250 | 4.3 | 7.0 | 0.00 | 0.09 | 0.00 | 89 | 1018.4 |
| 20260507110042 | 33 | 234 | 3.5 | 6.1 | 0.00 | 0.09 | 0.00 | 88 | 1018.6 |
| 20260507105521 | 32 | 229 | 2.6 | 5.2 | 0.00 | 0.09 | 0.00 | 88 | 1018.7 |
| 20260507105021 | 32 | 228 | 2.6 | 4.3 | 0.00 | 0.09 | 0.00 | 88 | 1018.6 |
| 20260507104541 | 32 | 228 | 2.6 | 4.3 | 0.00 | 0.09 | 0.00 | 88 | 1018.5 |
| 20260507104021 | 32 | 228 | 2.6 | 3.5 | 0.00 | 0.09 | 0.00 | 88 | 1018.4 |
| 20260507103522 | 32 | 228 | 1.7 | 3.5 | 0.00 | 0.09 | 0.00 | 88 | 1018.6 |
| 20260507103048 | 32 | 228 | 1.7 | 3.5 | 0.00 | 0.09 | 0.00 | 88 | 1018.5 |
| 20260507102520 | 32 | 228 | 1.7 | 3.5 | 0.00 | 0.09 | 0.00 | 88 | 1018.7 |
| 20260507102022 | 33 | 228 | 2.6 | 3.5 | 0.00 | 0.09 | 0.00 | 88 | 1018.6 |
| 20260507101540 | 33 | 228 | 2.6 | 3.5 | 0.00 | 0.09 | 0.00 | 88 | 1018.6 |
| 20260507101023 | 33 | 228 | 1.7 | 2.6 | 0.00 | 0.09 | 0.00 | 88 | 1018.8 |
| 20260507100522 | 33 | 228 | 1.7 | 2.6 | 0.00 | 0.09 | 0.00 | 88 | 1018.9 |
| 20260507100039 | 34 | 228 | 1.7 | 3.5 | 0.00 | 0.09 | 0.00 | 88 | 1019.0 |
| 20260507095524 | 34 | 228 | 1.7 | 3.5 | 0.00 | 0.10 | 0.00 | 88 | 1019.2 |
| 20260507095022 | 34 | 228 | 1.7 | 3.5 | 0.00 | 0.10 | 0.00 | 88 | 1019.1 |
| 20260507094554 | 34 | 228 | 1.7 | 3.5 | 0.00 | 0.10 | 0.00 | 87 | 1019.1 |
| 20260507094025 | 35 | 228 | 1.7 | 4.3 | 0.00 | 0.10 | 0.00 | 88 | 1019.1 |
| 20260507093521 | 35 | 228 | 1.7 | 4.3 | 0.00 | 0.10 | 0.00 | 88 | 1019.1 |
| 20260507093041 | 35 | 228 | 2.6 | 4.3 | 0.00 | 0.10 | 0.00 | 88 | 1019.2 |
| 20260507092521 | 35 | 228 | 2.6 | 4.3 | 0.00 | 0.10 | 0.00 | 88 | 1019.3 |
| 20260507092021 | 35 | 228 | 2.6 | 3.5 | 0.00 | 0.10 | 0.00 | 88 | 1019.2 |
| 20260507091540 | 35 | 228 | 2.6 | 3.5 | 0.00 | 0.10 | 0.00 | 88 | 1019.4 |
| 20260507091020 | 35 | 227 | 2.6 | 3.5 | 0.00 | 0.10 | 0.00 | 88 | 1019.2 |
| 20260507090522 | 35 | 227 | 2.6 | 4.3 | 0.00 | 0.10 | 0.00 | 88 | 1019.3 |
| 20260507090043 | 35 | 227 | 2.6 | 5.2 | 0.00 | 0.10 | 0.00 | 88 | 1019.3 |
| 20260507085522 | 36 | 227 | 2.6 | 5.2 | 0.00 | 0.10 | 0.00 | 88 | 1019.2 |
| 20260507085024 | 36 | 228 | 2.6 | 6.1 | 0.00 | 0.10 | 0.00 | 88 | 1019.5 |
| 20260507084544 | 36 | 228 | 3.5 | 6.1 | 0.00 | 0.10 | 0.00 | 88 | 1019.6 |
| 20260507084026 | 36 | 226 | 3.5 | 7.0 | 0.00 | 0.10 | 0.00 | 88 | 1019.6 |
| 20260507083522 | 36 | 227 | 3.5 | 7.0 | 0.00 | 0.10 | 0.00 | 88 | 1019.6 |
| 20260507083036 | 35 | 232 | 3.5 | 6.1 | 0.00 | 0.10 | 0.00 | 87 | 1019.7 |
| 20260507082522 | 36 | 230 | 3.5 | 6.1 | 0.00 | 0.10 | 0.00 | 87 | 1019.8 |
| 20260507082021 | 36 | 235 | 3.5 | 6.1 | 0.00 | 0.10 | 0.00 | 87 | 1019.9 |
| 20260507081542 | 36 | 250 | 2.6 | 4.3 | 0.00 | 0.10 | 0.00 | 87 | 1019.9 |
| 20260507081021 | 36 | 253 | 2.6 | 4.3 | 0.00 | 0.10 | 0.00 | 87 | 1019.9 |
| 20260507080519 | 36 | 254 | 1.7 | 3.5 | 0.00 | 0.10 | 0.00 | 87 | 1020.1 |
| 20260507080046 | 36 | 254 | 2.6 | 5.2 | 0.00 | 0.10 | 0.00 | 87 | 1020.0 |
| 20260507075519 | 36 | 255 | 2.6 | 6.1 | 0.00 | 0.11 | 0.00 | 87 | 1020.1 |
| 20260507075021 | 37 | 256 | 2.6 | 6.1 | 0.00 | 0.11 | 0.00 | 87 | 1020.2 |
| 20260507074627 | 37 | 257 | 3.5 | 6.1 | 0.00 | 0.11 | 0.00 | 87 | 1020.4 |
| 20260507074021 | 37 | 271 | 4.3 | 6.1 | 0.00 | 0.11 | 0.00 | 87 | 1020.3 |
| 20260507073525 | 37 | 254 | 3.5 | 6.1 | 0.00 | 0.11 | 0.00 | 87 | 1020.3 |
| 20260507073036 | 37 | 258 | 3.5 | 6.1 | 0.00 | 0.11 | 0.00 | 87 | 1020.3 |
| 20260507072522 | 37 | 259 | 2.6 | 5.2 | 0.00 | 0.11 | 0.00 | 87 | 1020.4 |
| 20260507072021 | 38 | 259 | 2.6 | 5.2 | 0.00 | 0.11 | 0.00 | 87 | 1020.5 |
| 20260507071546 | 38 | 259 | 1.7 | 5.2 | 0.00 | 0.11 | 0.00 | 87 | 1020.4 |
| 20260507071022 | 38 | 259 | 2.6 | 7.8 | 0.00 | 0.11 | 0.00 | 86 | 1020.3 |
| 20260507070522 | 39 | 260 | 3.5 | 7.8 | 0.00 | 0.11 | 0.00 | 86 | 1020.5 |
| 20260507070054 | 39 | 263 | 4.3 | 7.8 | 0.00 | 0.11 | 0.00 | 87 | 1020.6 |
| 20260507065520 | 39 | 265 | 3.5 | 6.1 | 0.00 | 0.11 | 0.00 | 87 | 1020.7 |
| 20260507065022 | 39 | 263 | 2.6 | 5.2 | 0.00 | 0.11 | 0.00 | 86 | 1020.8 |
| 20260507064547 | 39 | 263 | 2.6 | 3.5 | 0.00 | 0.11 | 0.00 | 86 | 1020.8 |
| 20260507064021 | 40 | 263 | 2.6 | 3.5 | 0.00 | 0.11 | 0.00 | 86 | 1020.7 |
| 20260507063522 | 39 | 263 | 1.7 | 3.5 | 0.00 | 0.11 | 0.00 | 86 | 1021.0 |
| 20260507063041 | 39 | 263 | 1.7 | 3.5 | 0.00 | 0.11 | 0.00 | 86 | 1020.9 |
| 20260507062518 | 40 | 263 | 1.7 | 5.2 | 0.00 | 0.11 | 0.00 | 86 | 1021.1 |
| 20260507062022 | 40 | 263 | 2.6 | 5.2 | 0.00 | 0.11 | 0.00 | 86 | 1021.2 |
| 20260507061538 | 40 | 263 | 3.5 | 5.2 | 0.00 | 0.11 | 0.00 | 86 | 1021.1 |
| 20260507061025 | 41 | 264 | 2.6 | 3.5 | 0.00 | 0.11 | 0.00 | 86 | 1021.3 |
| 20260507060521 | 41 | 264 | 1.7 | 2.6 | 0.00 | 0.11 | 0.00 | 86 | 1021.2 |
| 20260507060035 | 42 | 264 | 1.7 | 3.5 | 0.00 | 0.11 | 0.00 | 86 | 1021.3 |
| 20260507055522 | 42 | 264 | 1.7 | 3.5 | 0.00 | 0.11 | 0.00 | 86 | 1021.4 |
| 20260507055022 | 42 | 264 | 1.7 | 5.2 | 0.00 | 0.11 | 0.00 | 86 | 1021.4 |
| 20260507054541 | 42 | 264 | 2.6 | 5.2 | 0.00 | 0.11 | 0.00 | 86 | 1021.6 |
| 20260507054025 | 41 | 264 | 2.6 | 5.2 | 0.00 | 0.11 | 0.00 | 86 | 1021.6 |
| 20260507053522 | 41 | 264 | 2.6 | 3.5 | 0.00 | 0.11 | 0.00 | 86 | 1021.3 |
| 20260507053041 | 41 | 265 | 2.6 | 3.5 | 0.00 | 0.11 | 0.00 | 85 | 1021.3 |
| 20260507052521 | 42 | 265 | 1.7 | 2.6 | 0.00 | 0.11 | 0.00 | 85 | 1021.4 |
| 20260507052022 | 42 | 265 | 1.7 | 2.6 | 0.00 | 0.11 | 0.00 | 85 | 1021.0 |
| 20260507051542 | 43 | 265 | 1.7 | 2.6 | 0.00 | 0.11 | 0.00 | 85 | 1021.2 |
| 20260507051023 | 43 | 265 | 1.7 | 2.6 | 0.00 | 0.11 | 0.00 | 85 | 1021.2 |
| 20260507050518 | 43 | 265 | 1.7 | 2.6 | 0.00 | 0.11 | 0.00 | 84 | 1021.1 |
| 20260507050050 | 44 | 265 | 1.7 | 2.6 | 0.00 | 0.11 | 0.00 | 84 | 1021.2 |
| 20260507045522 | 44 | 265 | 0.9 | 3.5 | 0.00 | 0.11 | 0.11 | 84 | 1021.3 |
| 20260507045021 | 44 | 265 | 1.7 | 3.5 | 0.00 | 0.11 | 0.11 | 84 | 1021.4 |
| 20260507044542 | 44 | 265 | 0.9 | 3.5 | 0.00 | 0.11 | 0.11 | 84 | 1021.4 |
| 20260507044022 | 44 | 265 | 0.9 | 5.2 | 0.00 | 0.11 | 0.11 | 84 | 1021.5 |
| 20260507043522 | 44 | 265 | 2.6 | 5.2 | 0.00 | 0.11 | 0.11 | 84 | 1021.4 |
| 20260507043042 | 45 | 266 | 1.7 | 5.2 | 0.00 | 0.11 | 0.11 | 84 | 1021.5 |
| 20260507042521 | 45 | 267 | 1.7 | 3.5 | 0.00 | 0.11 | 0.11 | 84 | 1021.6 |
| 20260507042024 | 45 | 267 | 1.7 | 5.2 | 0.00 | 0.11 | 0.11 | 84 | 1021.7 |
| 20260507041545 | 45 | 267 | 2.6 | 5.2 | 0.00 | 0.11 | 0.11 | 84 | 1021.6 |
| 20260507041024 | 45 | 269 | 2.6 | 5.2 | 0.00 | 0.11 | 0.11 | 84 | 1021.8 |
| 20260507040523 | 45 | 272 | 2.6 | 5.2 | 0.00 | 0.11 | 0.11 | 84 | 1021.6 |
| 20260507040045 | 45 | 273 | 3.5 | 5.2 | 0.00 | 0.11 | 0.11 | 84 | 1021.5 |
| 20260507035522 | 45 | 274 | 1.7 | 6.1 | 0.00 | 0.11 | 0.11 | 84 | 1021.6 |
| 20260507035021 | 45 | 274 | 2.6 | 6.1 | 0.00 | 0.11 | 0.11 | 83 | 1021.5 |
| 20260507034542 | 45 | 274 | 3.5 | 7.0 | 0.00 | 0.11 | 0.11 | 83 | 1021.4 |
| 20260507034025 | 45 | 273 | 3.5 | 7.8 | 0.00 | 0.11 | 0.11 | 83 | 1021.6 |
| 20260507033522 | 45 | 275 | 4.3 | 7.8 | 0.00 | 0.11 | 0.11 | 83 | 1021.6 |
| 20260507033045 | 45 | 281 | 3.5 | 6.1 | 0.00 | 0.11 | 0.11 | 83 | 1021.5 |
| 20260507032521 | 45 | 286 | 3.5 | 6.1 | 0.00 | 0.11 | 0.11 | 83 | 1021.5 |
| 20260507032024 | 45 | 287 | 2.6 | 7.0 | 0.00 | 0.11 | 0.11 | 83 | 1021.2 |
| 20260507031554 | 45 | 289 | 3.5 | 7.0 | 0.00 | 0.11 | 0.11 | 83 | 1021.3 |
| 20260507031022 | 45 | 285 | 5.2 | 7.0 | 0.00 | 0.11 | 0.11 | 82 | 1021.2 |
| 20260507030522 | 45 | 279 | 4.3 | 7.0 | 0.00 | 0.11 | 0.11 | 82 | 1021.4 |
| 20260507030104 | 45 | 278 | 4.3 | 7.8 | 0.00 | 0.11 | 0.11 | 82 | 1021.3 |
| 20260507025521 | 45 | 290 | 4.3 | 7.8 | 0.00 | 0.11 | 0.11 | 82 | 1021.0 |
| 20260507025023 | 46 | 280 | 4.3 | 7.0 | 0.00 | 0.11 | 0.11 | 82 | 1021.1 |
| 20260507024601 | 46 | 284 | 3.5 | 6.1 | 0.00 | 0.11 | 0.11 | 82 | 1020.9 |
| 20260507024018 | 46 | 292 | 2.6 | 6.1 | 0.00 | 0.11 | 0.11 | 82 | 1020.8 |
| 20260507023519 | 46 | 15 | 1.7 | 3.5 | 0.00 | 0.11 | 0.11 | 82 | 1020.6 |
| 20260507023041 | 46 | 22 | 0.9 | 2.6 | 0.00 | 0.11 | 0.11 | 81 | 1020.5 |
| 20260507022520 | 46 | 22 | 0.9 | 2.6 | 0.00 | 0.11 | 0.11 | 81 | 1020.5 |
| 20260507022019 | 46 | 22 | 0.9 | 2.6 | 0.00 | 0.11 | 0.11 | 81 | 1020.4 |
| 20260507021552 | 46 | 22 | 0.9 | 2.6 | 0.00 | 0.11 | 0.11 | 80 | 1020.3 |
| 20260507021019 | 46 | 22 | 0.0 | 1.7 | 0.00 | 0.11 | 0.11 | 80 | 1020.2 |
| 20260507020520 | 46 | 22 | 0.9 | 1.7 | 0.00 | 0.11 | 0.11 | 80 | 1020.1 |
| 20260507020047 | 46 | 22 | 0.0 | 0.9 | 0.00 | 0.11 | 0.11 | 80 | 1020.0 |
| 20260507015521 | 46 | 0 | 0.0 | 0.0 | 0.00 | 0.11 | 0.11 | 80 | 1020.0 |
| 20260507015022 | 46 | 0 | 0.0 | 0.9 | 0.00 | 0.11 | 0.11 | 79 | 1020.1 |
| 20260507014552 | 46 | 0 | 0.0 | 1.7 | 0.00 | 0.11 | 0.11 | 79 | 1020.0 |
| 20260507014019 | 46 | 0 | 0.0 | 1.7 | 0.00 | 0.11 | 0.11 | 79 | 1020.2 |
| 20260507013521 | 46 | 22 | 0.9 | 3.5 | 0.00 | 0.11 | 0.11 | 79 | 1020.3 |
| 20260507013043 | 46 | 22 | 0.9 | 4.3 | 0.00 | 0.11 | 0.11 | 78 | 1020.2 |
| 20260507012521 | 47 | 22 | 1.7 | 4.3 | 0.00 | 0.11 | 0.11 | 78 | 1020.2 |
| 20260507012021 | 47 | 22 | 2.6 | 4.3 | 0.00 | 0.11 | 0.11 | 77 | 1020.4 |
| 20260507011547 | 47 | 38 | 1.7 | 3.5 | 0.00 | 0.11 | 0.11 | 77 | 1020.3 |
| 20260507011020 | 47 | 53 | 1.7 | 2.6 | 0.00 | 0.11 | 0.11 | 76 | 1020.3 |
| 20260507010519 | 47 | 54 | 0.9 | 3.5 | 0.00 | 0.11 | 0.11 | 76 | 1020.2 |
| 20260507010042 | 47 | 54 | 1.7 | 3.5 | 0.00 | 0.11 | 0.11 | 75 | 1020.0 |
| 20260507005519 | 47 | 54 | 1.7 | 3.5 | 0.00 | 0.11 | 0.11 | 75 | 1019.9 |
| 20260507005023 | 47 | 54 | 1.7 | 3.5 | 0.00 | 0.11 | 0.11 | 75 | 1019.7 |
| 20260507004543 | 47 | 54 | 1.7 | 3.5 | 0.00 | 0.11 | 0.11 | 74 | 1019.7 |
| 20260507004022 | 47 | 54 | 2.6 | 4.3 | 0.00 | 0.11 | 0.11 | 74 | 1019.6 |
| 20260507003522 | 47 | 54 | 1.7 | 4.3 | 0.00 | 0.11 | 0.11 | 74 | 1019.4 |
| 20260507003042 | 47 | 55 | 2.6 | 4.3 | 0.00 | 0.11 | 0.11 | 74 | 1019.3 |
| 20260507002521 | 47 | 55 | 2.6 | 4.3 | 0.00 | 0.11 | 0.11 | 74 | 1019.5 |
| 20260507002022 | 47 | 55 | 1.7 | 4.3 | 0.00 | 0.11 | 0.11 | 74 | 1019.7 |
| 20260507001541 | 47 | 55 | 2.6 | 4.3 | 0.00 | 0.11 | 0.11 | 74 | 1019.7 |
| 20260507001021 | 47 | 55 | 2.6 | 4.3 | 0.00 | 0.11 | 0.11 | 74 | 1019.6 |
| 20260507000521 | 47 | 55 | 2.6 | 5.2 | 0.00 | 0.11 | 0.11 | 74 | 1019.7 |
| 20260507000043 | 47 | 54 | 3.5 | 5.2 | 0.00 | 0.11 | 0.11 | 74 | 1019.9 |
| 20260506235522 | 47 | 53 | 2.6 | 7.0 | 0.00 | 0.11 | 0.11 | 74 | 1020.0 |
| 20260506235018 | 48 | 51 | 2.6 | 7.0 | 0.00 | 0.11 | 0.11 | 74 | 1019.9 |
| 20260506234545 | 48 | 42 | 2.6 | 7.0 | 0.00 | 0.11 | 0.11 | 74 | 1020.0 |
| 20260506234022 | 48 | 69 | 3.5 | 7.8 | 0.00 | 0.11 | 0.11 | 73 | 1019.7 |
| 20260506233522 | 48 | 55 | 4.3 | 7.8 | 0.00 | 0.11 | 0.11 | 73 | 1019.3 |
| 20260506233049 | 48 | 53 | 4.3 | 7.8 | 0.00 | 0.11 | 0.11 | 73 | 1019.5 |
| 20260506232521 | 48 | 58 | 3.5 | 7.0 | 0.00 | 0.11 | 0.11 | 74 | 1019.5 |
| 20260506232021 | 48 | 76 | 3.5 | 5.2 | 0.00 | 0.11 | 0.11 | 73 | 1019.7 |
| 20260506231546 | 48 | 71 | 0.9 | 7.0 | 0.00 | 0.11 | 0.11 | 73 | 1019.7 |
| 20260506231022 | 48 | 71 | 1.7 | 7.0 | 0.00 | 0.11 | 0.11 | 73 | 1019.7 |
| 20260506230521 | 48 | 76 | 4.3 | 7.0 | 0.00 | 0.11 | 0.11 | 73 | 1019.3 |
| 20260506230046 | 48 | 104 | 2.6 | 6.1 | 0.00 | 0.11 | 0.11 | 74 | 1019.3 |
| 20260506225525 | 48 | 105 | 2.6 | 6.1 | 0.00 | 0.11 | 0.11 | 74 | 1019.4 |
| 20260506225025 | 48 | 105 | 2.6 | 6.1 | 0.00 | 0.11 | 0.11 | 74 | 1019.3 |
| 20260506224541 | 48 | 106 | 1.7 | 5.2 | 0.00 | 0.11 | 0.11 | 74 | 1019.5 |
| 20260506224018 | 48 | 0 | 0.9 | 6.1 | 0.00 | 0.11 | 0.11 | 74 | 1019.6 |
| 20260506223519 | 48 | 0 | 0.9 | 6.1 | 0.00 | 0.11 | 0.11 | 75 | 1019.5 |
| 20260506223038 | 48 | 113 | 0.9 | 3.5 | 0.00 | 0.11 | 0.11 | 76 | 1019.4 |
| 20260506222519 | 47 | 113 | 0.0 | 7.0 | 0.00 | 0.11 | 0.11 | 76 | 1019.3 |
| 20260506222019 | 47 | 113 | 2.6 | 7.0 | 0.00 | 0.11 | 0.11 | 76 | 1019.5 |
| 20260506221535 | 47 | 118 | 2.6 | 6.1 | 0.00 | 0.11 | 0.11 | 77 | 1019.6 |
| 20260506221018 | 47 | 117 | 2.6 | 8.7 | 0.00 | 0.11 | 0.11 | 77 | 1019.6 |
| 20260506220522 | 47 | 117 | 4.3 | 8.7 | 0.00 | 0.11 | 0.11 | 77 | 1019.8 |
| 20260506220052 | 48 | 111 | 5.2 | 8.7 | 0.00 | 0.11 | 0.11 | 77 | 1019.7 |
| 20260506215522 | 48 | 126 | 4.3 | 8.7 | 0.00 | 0.11 | 0.11 | 77 | 1019.7 |
| 20260506215023 | 47 | 117 | 3.5 | 7.8 | 0.00 | 0.11 | 0.11 | 77 | 1019.6 |
| 20260506214546 | 47 | 116 | 2.6 | 7.0 | 0.00 | 0.11 | 0.11 | 78 | 1019.7 |
| 20260506214025 | 47 | 113 | 1.7 | 7.0 | 0.00 | 0.11 | 0.11 | 79 | 1019.6 |
| 20260506213526 | 47 | 112 | 3.5 | 7.0 | 0.00 | 0.11 | 0.11 | 80 | 1019.6 |
| 20260506213043 | 47 | 108 | 3.5 | 7.0 | 0.00 | 0.11 | 0.11 | 80 | 1019.6 |
| 20260506212523 | 46 | 84 | 2.6 | 7.8 | 0.00 | 0.11 | 0.11 | 81 | 1019.7 |
| 20260506212026 | 46 | 82 | 0.9 | 7.8 | 0.00 | 0.11 | 0.11 | 82 | 1019.8 |
| 20260506211541 | 46 | 65 | 1.7 | 7.0 | 0.00 | 0.11 | 0.11 | 82 | 1019.8 |
| 20260506211021 | 46 | 70 | 2.6 | 7.0 | 0.00 | 0.11 | 0.11 | 82 | 1019.9 |
| 20260506210523 | 46 | 86 | 1.7 | 7.0 | 0.00 | 0.11 | 0.11 | 82 | 1019.9 |
| 20260506210041 | 45 | 86 | 3.5 | 8.7 | 0.00 | 0.11 | 0.11 | 82 | 1019.9 |
| 20260506205525 | 45 | 79 | 4.3 | 8.7 | 0.00 | 0.11 | 0.11 | 83 | 1019.9 |
| 20260506205023 | 45 | 77 | 6.1 | 8.7 | 0.00 | 0.11 | 0.11 | 83 | 1019.7 |
| 20260506204544 | 45 | 80 | 4.3 | 11.3 | 0.00 | 0.11 | 0.11 | 83 | 1019.9 |
| 20260506204021 | 45 | 94 | 6.1 | 11.3 | 0.00 | 0.11 | 0.11 | 84 | 1019.9 |
| 20260506203525 | 45 | 90 | 5.2 | 7.8 | 0.00 | 0.11 | 0.11 | 84 | 1019.7 |
| 20260506203043 | 45 | 98 | 5.2 | 8.7 | 0.00 | 0.11 | 0.11 | 84 | 1019.9 |
| 20260506202521 | 44 | 88 | 4.3 | 8.7 | 0.00 | 0.11 | 0.11 | 85 | 1020.0 |
| 20260506202024 | 44 | 92 | 5.2 | 8.7 | 0.00 | 0.11 | 0.11 | 85 | 1019.8 |
| 20260506201542 | 44 | 101 | 3.5 | 8.7 | 0.00 | 0.11 | 0.11 | 85 | 1020.0 |
| 20260506201021 | 44 | 96 | 4.3 | 8.7 | 0.00 | 0.11 | 0.11 | 85 | 1020.0 |